Location: Haliburton Scout Reserve
(45.0900°N, 78.3200°W)
Time: 11:35:40
(UTC-05:00)

N. Korean satellite - Pass Details

Date: 28 November 2021
Orbit: 447 x 491 km, 97.3° (Epoch: 23 January)

Event Time Altitude Azimuth Distance (km) Brightness Sun altitude
Rises 05:50:37 0° 7° (N) 2,483 10.1 -16.8°
Reaches altitude 10° 05:52:42 10° 2° (N) 1,598 9.1 -16.4°
Maximum altitude 05:56:02 51° 286° (WNW) 577 6.5 -15.9°
Drops below altitude 10° 05:59:18 10° 210° (SSW) 1,571 9.0 -15.3°
Sets 06:01:20 0° 205° (SSW) 2,436 10.0 -15.0°
